Location: Saluda
(35.2377°N, 82.3468°W)
Time: 03:07:20
(UTC+00:00)

Vanguard 2 Rocket - Pass Details

Date: 10 October 2022
Orbit: 555 x 3321 km, 32.9° (Epoch: 05 December)

Event Time Altitude Azimuth Distance (km) Brightness Sun altitude
Rises 07:57:17 0° 282° (WNW) 5,660 - -43.4°
Reaches altitude 10° 08:02:10 10° 274° (W) 4,146 - -42.5°
Maximum altitude 08:10:34 30° 219° (SW) 2,047 - -40.9°
Drops below altitude 10° 08:15:57 10° 159° (SSE) 2,586 - -39.9°
Sets 08:18:17 0° 147° (SSE) 3,281 - -39.5°
